TimeCDT,TemperatureF,Dew PointF,Humidity,Sea Level PressureIn,VisibilityMPH,Wind Direction,Wind SpeedMPH,Gust SpeedMPH,PrecipitationIn,Events,Conditions,WindDirDegrees,DateUTC
12:54 AM,33.1,21.9,64,29.98,10.0,NE,13.8,-,N/A,,Overcast,50,2013-03-24 05:54:00
1:40 AM,30.2,24.8,80,29.97,2.5,NE,10.4,-,N/A,Snow,Light Snow,40,2013-03-24 06:40:00
1:50 AM,30.2,26.6,86,29.97,2.5,NE,11.5,21.9,0.00,Snow,Light Snow,50,2013-03-24 06:50:00
1:54 AM,30.9,26.1,82,29.99,2.0,NE,10.4,21.9,0.00,Snow,Light Snow,50,2013-03-24 06:54:00
2:04 AM,30.0,27.0,88,29.97,1.8,NE,10.4,-,0.00,Snow,Light Snow,50,2013-03-24 07:04:00
2:10 AM,30.0,27.0,88,29.97,2.0,NE,12.7,-,0.00,Snow,Light Snow,50,2013-03-24 07:10:00
2:20 AM,30.0,27.0,88,29.97,1.5,NE,12.7,-,0.01,Snow,Light Snow,40,2013-03-24 07:20:00
2:50 AM,30.2,26.6,86,29.95,2.0,NE,12.7,-,0.01,Snow,Light Snow,40,2013-03-24 07:50:00
2:54 AM,30.0,27.0,88,29.96,2.5,NE,12.7,-,0.02,Snow,Light Snow,50,2013-03-24 07:54:00
3:02 AM,30.0,27.0,88,29.94,3.0,NE,12.7,-,0.00,Snow,Light Snow,50,2013-03-24 08:02:00
3:09 AM,30.0,27.0,88,29.94,1.8,NE,16.1,-,0.00,Snow,Light Snow,50,2013-03-24 08:09:00
3:18 AM,30.0,27.0,88,29.94,1.0,NE,12.7,23.0,0.00,Snow,Light Snow,50,2013-03-24 08:18:00
3:37 AM,30.0,27.0,88,29.93,1.0,ENE,17.3,21.9,0.01,Snow,Light Snow,60,2013-03-24 08:37:00
3:54 AM,30.0,27.0,88,29.92,1.2,ENE,13.8,-,0.02,Snow,Light Snow,60,2013-03-24 08:54:00
4:05 AM,30.0,27.0,88,29.90,1.5,ENE,13.8,-,0.00,Snow,Light Snow,60,2013-03-24 09:05:00
4:13 AM,30.0,27.0,88,29.89,1.8,ENE,13.8,-,0.00,Snow,Light Snow,60,2013-03-24 09:13:00
4:18 AM,30.0,27.0,88,29.88,2.0,ENE,15.0,-,0.00,Snow,Light Snow,60,2013-03-24 09:18:00
4:40 AM,30.0,27.0,88,29.88,1.8,ENE,13.8,-,0.01,Snow,Light Snow,60,2013-03-24 09:40:00
4:54 AM,30.0,27.0,88,29.88,1.8,ENE,12.7,-,0.01,Snow,Light Snow,60,2013-03-24 09:54:00
5:04 AM,30.0,27.0,88,29.87,2.5,ENE,11.5,-,0.00,Snow,Light Snow,60,2013-03-24 10:04:00
5:17 AM,30.0,27.0,88,29.87,3.0,ENE,15.0,-,0.00,Snow,Light Snow,60,2013-03-24 10:17:00
5:54 AM,30.0,26.1,85,29.88,5.0,ENE,10.4,-,0.00,Snow,Light Snow,70,2013-03-24 10:54:00
6:54 AM,30.0,26.1,85,29.86,7.0,ENE,12.7,-,0.00,Snow,Light Snow,60,2013-03-24 11:54:00
7:54 AM,30.0,27.0,88,29.82,4.0,NE,13.8,-,0.01,Snow,Light Snow,50,2013-03-24 12:54:00
8:14 AM,30.0,27.0,88,29.77,2.5,NE,17.3,-,0.00,Snow,Light Snow,50,2013-03-24 13:14:00
8:23 AM,30.0,27.0,88,29.76,3.0,NE,16.1,-,0.00,Snow,Light Snow,50,2013-03-24 13:23:00
8:37 AM,30.0,27.0,88,29.77,3.0,ENE,12.7,-,0.00,Snow,Light Snow,60,2013-03-24 13:37:00
8:54 AM,30.0,27.0,88,29.78,4.0,ENE,13.8,-,0.00,Snow,Light Snow,60,2013-03-24 13:54:00
9:07 AM,30.9,27.0,85,29.75,4.0,NE,16.1,21.9,0.00,,Overcast,50,2013-03-24 14:07:00
9:54 AM,30.9,27.0,85,29.76,7.0,NE,16.1,-,0.00,,Overcast,50,2013-03-24 14:54:00
10:54 AM,30.9,26.1,82,29.78,5.0,NNE,12.7,16.1,0.00,Snow,Light Snow,20,2013-03-24 15:54:00
11:11 AM,30.9,26.1,82,29.75,2.0,NNE,10.4,-,0.01,Snow,Light Snow,30,2013-03-24 16:11:00
11:14 AM,30.9,26.1,82,29.75,1.8,NNE,9.2,-,0.01,Snow,Light Snow,30,2013-03-24 16:14:00
11:40 AM,30.9,27.0,85,29.74,1.2,NNE,9.2,-,0.03,Snow,Light Snow,30,2013-03-24 16:40:00
11:54 AM,30.9,28.0,89,29.75,0.8,North,6.9,-,0.04,Snow,Light Snow,10,2013-03-24 16:54:00
12:04 PM,30.9,28.0,89,29.73,0.5,North,5.8,-,0.01,Fog-Snow,Snow,360,2013-03-24 17:04:00
12:15 PM,30.9,28.0,89,29.72,0.5,North,9.2,-,0.03,Fog-Snow,Snow,360,2013-03-24 17:15:00
12:36 PM,30.9,28.9,92,29.71,0.2,North,8.1,-,0.05,Fog-Snow,Snow,360,2013-03-24 17:36:00
12:52 PM,30.2,28.4,93,29.71,0.5,NNE,9.2,-,0.06,Fog-Snow,Snow,20,2013-03-24 17:52:00
12:54 PM,30.9,28.9,92,29.73,0.5,NNE,4.6,-,0.06,Fog-Snow,Snow,20,2013-03-24 17:54:00
1:54 PM,30.9,28.9,92,29.69,0.5,NNE,11.5,21.9,0.04,Fog-Snow,Snow,20,2013-03-24 18:54:00
2:01 PM,30.9,28.9,92,29.66,0.2,NNE,11.5,20.7,0.01,Fog-Snow,Snow,20,2013-03-24 19:01:00
2:54 PM,30.9,28.9,92,29.66,0.2,NNE,10.4,20.7,0.06,Fog-Snow,Snow,30,2013-03-24 19:54:00
3:14 PM,32.0,28.9,88,29.64,0.5,NNE,8.1,-,0.02,Fog-Snow,Snow,20,2013-03-24 20:14:00
3:54 PM,32.0,30.0,92,29.67,0.2,NNE,11.5,19.6,0.06,Fog-Snow,Snow,20,2013-03-24 20:54:00
4:04 PM,32.0,28.9,88,29.65,0.5,NNE,11.5,18.4,0.00,Fog-Snow,Snow,30,2013-03-24 21:04:00
4:32 PM,32.0,28.9,88,29.66,0.2,NNE,12.7,18.4,0.03,Fog-Snow,Snow,20,2013-03-24 21:32:00
4:54 PM,32.0,30.0,92,29.68,0.2,North,10.4,-,0.06,Fog-Snow,Snow,10,2013-03-24 21:54:00
5:34 PM,32.0,30.0,92,29.66,0.5,North,10.4,-,0.05,Fog-Snow,Light Snow,10,2013-03-24 22:34:00
5:54 PM,32.0,28.9,88,29.69,0.8,North,12.7,-,0.06,Snow,Light Snow,10,2013-03-24 22:54:00
6:54 PM,30.9,28.9,92,29.72,0.5,North,11.5,21.9,0.02,Fog-Snow,Snow,10,2013-03-24 23:54:00
7:04 PM,30.9,28.9,92,29.70,0.2,North,12.7,20.7,0.01,Fog-Snow,Snow,10,2013-03-25 00:04:00
7:11 PM,30.9,28.9,92,29.70,0.5,North,11.5,20.7,0.02,Fog-Snow,Snow,10,2013-03-25 00:11:00
7:44 PM,30.9,28.9,92,29.71,1.0,North,11.5,24.2,0.04,Snow,Light Snow,360,2013-03-25 00:44:00
7:54 PM,30.9,28.9,92,29.74,1.0,North,12.7,21.9,0.05,Snow,Light Snow,360,2013-03-25 00:54:00
8:54 PM,30.9,28.9,92,29.75,1.2,North,9.2,17.3,0.02,Snow,Light Snow,360,2013-03-25 01:54:00
9:54 PM,30.0,28.0,92,29.77,1.0,North,12.7,21.9,0.03,Snow,Light Snow,360,2013-03-25 02:54:00
10:22 PM,30.0,28.0,92,29.75,1.5,North,11.5,25.3,0.01,Snow,Light Snow,360,2013-03-25 03:22:00
10:43 PM,30.0,28.0,92,29.75,1.5,North,11.5,19.6,0.02,Snow,Light Snow,350,2013-03-25 03:43:00
10:54 PM,30.0,27.0,88,29.78,1.5,North,12.7,21.9,0.02,Snow,Light Snow,350,2013-03-25 03:54:00
11:02 PM,30.0,27.0,88,29.75,1.2,North,11.5,23.0,0.00,Snow,Light Snow,350,2013-03-25 04:02:00
11:49 PM,30.2,26.6,86,29.76,1.2,North,10.4,20.7,0.02,Snow,Light Snow,350,2013-03-25 04:49:00
11:54 PM,30.0,27.0,88,29.78,1.2,North,12.7,19.6,0.02,Snow,Light Snow,350,2013-03-25 04:54:00